User: anonymous   Login
Location: ??
(34.7707°N, 135.6540°E)
Time: 23:40:20
(UTC+00:00)
Language:

PAYLOAD A - Orbit

View from above orbital plane
View from above orbital plane
View from above satellite
View from above satellite

Ground track
Ground track

The orbit data is extracted from the following two-line orbital elements,

1 27840U 03031A   20188.54400781 -.00000033 +00000-0 +36070-5 0  9994
2 27840 098.3221 159.6639 0098309 002.3290 357.8336 14.38940073893613
Epoch (UTC): 06 July 2020 13:03:22
Eccentricity: 0.0098309
inclination: 98.3221°
perigee height: 692 km
apogee height: 832 km
right ascension of ascending node: 159.6639°
argument of perigee: 2.3290°
revolutions per day: 14.38940073
mean anomaly at epoch: 357.8336°
orbit number at epoch: 89361

The dashed part of the orbit path shows where the satellite is in the earth's shadow,  

DLR